Weather History for Port Lavaca, TX

Change the Weather History Date:

Saturday, March 1, 2014

  Actual Average (KVCT) Record (KVCT)
Temperature  
Mean Temperature 72 °F 60 °F  
Max Temperature 79 °F 71 °F 89 °F (1975)
Min Temperature 64 °F 50 °F 26 °F (1922)
Degree Days  
Heating Degree Days 0 6  
Month to date heating degree days 6  
Since 1 July heating degree days 1099  
Cooling Degree Days 6 1  
Month to date cooling degree days 1  
Year to date cooling degree days 39  
Growing Degree Days 22 (Base 50)    
Moisture  
Dew Point 66 °F    
Average Humidity 88    
Maximum Humidity 99    
Minimum Humidity 65    
Precipitation  
Precipitation 0.00 in 0.08 in 1.03 in (1990)
Month to date precipitation 0.08  
Year to date precipitation 4.68  
Snow  
Snow 0.00 in - - ()
Month to date snowfall  
Since 1 July snowfall  
Snow Depth -    
Sea Level Pressure  
Sea Level Pressure 29.97 in    
Wind  
Wind Speed 13 mph (SSE)    
Max Wind Speed 22 mph    
Max Gust Speed 28 mph    
Visibility 8 miles    
Events Fog    
T = Trace of Precipitation, MM = Missing Value Source: NWS Daily Summary

Daily Weather History Graph

Daily Weather History Graph

Search for Another Location

Airport:

Trip Planner

Search our weather history database for the weather conditions in past years. The results will help you decide how hot, cold, wet, or windy it might be!

Date:

Astronomy

Mar. 01, 2014 Rise Set
Actual Time 6:51 AM CST 6:26 PM CST
Civil Twilight 6:28 AM CST 6:50 PM CST
Nautical Twilight 6:00 AM CST 7:17 PM CST
Astronomical Twilight 5:33 AM CST 7:45 PM CST
Moon 6:50 AM CST (3/1) 7:08 PM CST (3/1)
Length of Visible Light 12h 22m
Length of Day
11h 35m
New Moon, 0% of the Moon is Illuminated
Mar 1
New Moon
Mar 8
First Quarter
Mar 16
Full
Mar 23
Last Quarter
Mar 30
New

Hourly Weather History & Observations

Time (CST) Temp. Dew Point Humidity Pressure Visibility Wind Dir Wind Speed Gust Speed Precip Events Conditions
12:15 AM 64.4 °F 63.1 °F 96% 29.90 in 7.0 mi SSW 12.7 mph - N/A   Overcast
12:35 AM 64.6 °F 63.5 °F 96% 29.90 in 7.0 mi SSW 11.5 mph - N/A   Overcast
12:55 AM 65.3 °F 63.9 °F 95% 29.90 in 7.0 mi SSW 15.0 mph 19.6 mph N/A   Overcast
1:15 AM 66.0 °F 64.8 °F 96% 29.90 in 7.0 mi SSW 15.0 mph 19.6 mph N/A   Overcast
1:35 AM 66.2 °F 64.9 °F 96% 29.90 in 7.0 mi South 12.7 mph 18.4 mph N/A   Overcast
1:55 AM 66.2 °F 64.9 °F 96% 29.91 in 7.0 mi SSW 13.8 mph - N/A   Overcast
2:15 AM 66.4 °F 65.1 °F 96% 29.91 in 10.0 mi SSW 16.1 mph 19.6 mph N/A   Overcast
2:35 AM 66.4 °F 64.8 °F 95% 29.91 in 10.0 mi SSW 16.1 mph 21.9 mph N/A   Overcast
2:55 AM 65.5 °F 64.0 °F 95% 29.90 in 10.0 mi SSW 13.8 mph - N/A   Mostly Cloudy
3:15 AM 65.5 °F 64.0 °F 95% 29.90 in 10.0 mi SSW 11.5 mph - N/A   Overcast
3:35 AM 65.8 °F 64.4 °F 95% 29.91 in 10.0 mi SSW 9.2 mph - N/A   Overcast
3:55 AM 66.2 °F 64.9 °F 96% 29.91 in 10.0 mi SSW 13.8 mph - N/A   Overcast
4:15 AM 66.2 °F 64.8 °F 95% 29.91 in 7.0 mi South 13.8 mph 19.6 mph N/A   Overcast
4:35 AM 65.3 °F 64.4 °F 97% 29.91 in 3.0 mi South 10.4 mph 18.4 mph N/A   Overcast
4:55 AM 64.9 °F 64.0 °F 97% 29.93 in 2.0 mi South 10.4 mph - N/A   Overcast
5:15 AM 64.6 °F 63.7 °F 97% 29.93 in 1.2 mi South 10.4 mph - N/A   Overcast
5:35 AM 64.4 °F 63.7 °F 98% 29.94 in 0.8 mi South 9.2 mph - N/A   Overcast
5:55 AM 64.4 °F 63.7 °F 98% 29.96 in 0.8 mi SSW 6.9 mph - N/A   Overcast
6:15 AM 64.2 °F 63.5 °F 98% 29.97 in 0.5 mi South 4.6 mph - N/A Fog Fog
6:35 AM 64.0 °F 63.5 °F 98% 29.97 in 0.8 mi South 5.8 mph - N/A   Overcast
6:55 AM 64.0 °F 63.5 °F 98% 29.98 in 0.8 mi South 8.1 mph - N/A   Overcast
7:15 AM 64.0 °F 63.5 °F 98% 29.98 in 0.8 mi South 6.9 mph - N/A   Overcast
7:35 AM 64.2 °F 63.5 °F 98% 29.98 in 0.2 mi SSE 6.9 mph - N/A Fog Fog
7:55 AM 65.1 °F 64.6 °F 98% 29.99 in 0.5 mi SSE 8.1 mph - N/A Fog Fog
8:15 AM 65.3 °F 64.4 °F 97% 30.00 in 0.8 mi ESE 8.1 mph - N/A   Overcast
8:35 AM 65.5 °F 65.1 °F 99% 30.00 in 0.5 mi SE 8.1 mph - N/A Fog Fog
8:55 AM 66.0 °F 65.5 °F 98% 30.01 in 0.2 mi ESE 8.1 mph - N/A Fog Fog
9:15 AM 65.5 °F 64.9 °F 98% 30.02 in 0.2 mi ESE 5.8 mph - N/A Fog Fog
9:35 AM 67.3 °F 66.7 °F 98% 30.03 in 1.0 mi SE 8.1 mph - N/A   Overcast
9:55 AM 68.5 °F 68.0 °F 98% 30.03 in 5.0 mi SSE 10.4 mph - N/A   Overcast
10:15 AM 69.8 °F 68.9 °F 97% 30.03 in 10.0 mi SSE 11.5 mph - N/A   Overcast
10:35 AM 70.3 °F 67.5 °F 91% 30.03 in 7.0 mi SE 9.2 mph - N/A   Overcast
10:55 AM 73.9 °F 67.8 °F 81% 30.03 in 10.0 mi ESE 9.2 mph 17.3 mph N/A   Overcast
11:15 AM 75.4 °F 67.5 °F 76% 30.03 in 10.0 mi South 18.4 mph - N/A   Overcast
11:35 AM 77.5 °F 67.5 °F 71% 30.03 in 10.0 mi SSE 16.1 mph 21.9 mph N/A   Overcast
11:55 AM 78.6 °F 66.2 °F 66% 30.02 in 10.0 mi South 13.8 mph 24.2 mph N/A   Overcast
12:15 PM 78.1 °F 66.9 °F 68% 30.02 in 10.0 mi South 19.6 mph 24.2 mph N/A   Overcast
12:35 PM 77.7 °F 66.9 °F 69% 30.02 in 10.0 mi South 17.3 mph 23.0 mph N/A   Overcast
12:55 PM 78.6 °F 66.9 °F 67% 30.01 in 10.0 mi South 17.3 mph 26.5 mph N/A   Overcast
1:15 PM 78.8 °F 67.3 °F 68% 30.00 in 10.0 mi South 16.1 mph 24.2 mph N/A   Overcast
1:35 PM 79.2 °F 67.5 °F 67% 29.99 in 10.0 mi SSE 20.7 mph 24.2 mph N/A   Overcast
1:55 PM 79.9 °F 67.3 °F 65% 29.98 in 10.0 mi South 18.4 mph 26.5 mph N/A   Mostly Cloudy
2:15 PM 79.0 °F 67.5 °F 68% 29.97 in 10.0 mi South 20.7 mph 27.6 mph N/A   Mostly Cloudy
2:35 PM 79.0 °F 66.9 °F 66% 29.96 in 10.0 mi South 20.7 mph 26.5 mph N/A   Mostly Cloudy
2:55 PM 78.8 °F 67.5 °F 68% 29.96 in 10.0 mi SSE 18.4 mph 26.5 mph N/A   Mostly Cloudy
3:15 PM 78.3 °F 67.5 °F 69% 29.96 in 10.0 mi South 17.3 mph 25.3 mph N/A   Overcast
3:35 PM 77.2 °F 68.0 °F 73% 29.96 in 10.0 mi SSE 19.6 mph 25.3 mph N/A   Overcast
3:55 PM 76.5 °F 68.0 °F 75% 29.95 in 10.0 mi SSE 20.7 mph 25.3 mph N/A   Overcast
4:15 PM 75.9 °F 68.2 °F 77% 29.95 in 10.0 mi SSE 17.3 mph 20.7 mph N/A   Overcast
4:35 PM 75.2 °F 68.0 °F 78% 29.95 in 10.0 mi SSE 21.9 mph 25.3 mph N/A   Overcast
5:00 PM 73.9 °F 68.0 °F 82% 29.95 in 10.0 mi SSE 20.7 mph 26.5 mph N/A   Overcast
5:15 PM 73.4 °F 68.0 °F 83% 29.95 in 10.0 mi SSE 18.4 mph 27.6 mph N/A   Overcast
5:35 PM 72.9 °F 68.0 °F 85% 29.96 in 10.0 mi SSE 17.3 mph - N/A   Overcast
5:55 PM 72.1 °F 68.0 °F 87% 29.96 in 10.0 mi SSE 18.4 mph 23.0 mph N/A   Overcast
6:15 PM 71.6 °F 67.8 °F 88% 29.96 in 10.0 mi SSE 15.0 mph - N/A   Overcast
6:35 PM 71.1 °F 67.6 °F 89% 29.97 in 10.0 mi SE 18.4 mph - N/A   Overcast
6:55 PM 70.7 °F 67.5 °F 89% 29.97 in 10.0 mi SE 15.0 mph 19.6 mph N/A   Overcast
7:15 PM 70.7 °F 67.6 °F 90% 29.97 in 10.0 mi SE 15.0 mph 23.0 mph N/A   Overcast
7:35 PM 70.3 °F 67.5 °F 91% 29.97 in 10.0 mi SE 15.0 mph 19.6 mph N/A   Overcast
7:55 PM 70.2 °F 67.5 °F 91% 29.98 in 10.0 mi SE 16.1 mph 23.0 mph N/A   Overcast
8:15 PM 70.0 °F 67.3 °F 91% 29.97 in 10.0 mi SE 16.1 mph - N/A   Overcast
8:35 PM 70.0 °F 67.3 °F 91% 29.98 in 10.0 mi SSE 16.1 mph 24.2 mph N/A   Overcast
8:55 PM 69.8 °F 67.3 °F 92% 29.98 in 10.0 mi SE 16.1 mph 20.7 mph N/A   Overcast
9:15 PM 70.0 °F 67.3 °F 91% 29.98 in 10.0 mi SE 17.3 mph 21.9 mph N/A   Overcast
9:35 PM 69.8 °F 67.3 °F 92% 29.99 in 10.0 mi SE 15.0 mph 19.6 mph N/A   Overcast
9:55 PM 69.8 °F 67.3 °F 92% 29.98 in 10.0 mi SE 16.1 mph 21.9 mph N/A   Overcast
10:15 PM 69.8 °F 67.3 °F 92% 29.98 in 10.0 mi SE 16.1 mph 20.7 mph N/A   Overcast
10:35 PM 69.6 °F 67.1 °F 92% 29.98 in 10.0 mi SE 15.0 mph 20.7 mph N/A   Overcast
10:55 PM 69.4 °F 67.1 °F 92% 29.98 in 10.0 mi SE 13.8 mph 20.7 mph N/A   Overcast
11:15 PM 69.4 °F 67.3 °F 93% 29.98 in 10.0 mi SE 15.0 mph - N/A   Overcast
11:35 PM 69.3 °F 67.1 °F 93% 29.98 in 7.0 mi SE 15.0 mph - N/A   Overcast
11:55 PM 69.1 °F 67.1 °F 93% 29.98 in 7.0 mi SE 13.8 mph 17.3 mph N/A   Overcast